Regional Weather Roundup
Issued by NWS Wakefield, VA

Home | Current Version | Previous Version | Text Only | Print | Product List | Glossary Off
Versions: 1 2 3 4 5 6 7 8 9 10 11 12 13 14 15 16 17 18 19 20 21 22 23 24 25 26 27

000
ASUS41 KAKQ 290115
RWRAKQ

REGIONAL WEATHER ROUNDUP
NATIONAL WEATHER SERVICE WAKEFIELD VA
900 PM EDT THU APR 28 2016

Note: "fair" indicates few or no clouds below 12,000 feet with no
significant weather and/or obstructions to visibility. * = Denotes
station may not report precipitation (e.g., rain,snow,etc.),
thunder or fog.

VAZ042-051-052>054-056-290200-
NORTHERN VIRGINIA

CITY           SKY/WX    TMP DP  RH WIND       PRES   REMARKS
WASH NATIONAL  HVY RAIN  49  47  93 NE9       30.05R FOG
DULLES         LGT RAIN  48  46  93 NE6       30.01R FOG
FORT BELVOIR   CLOUDY    50  46  87 VRB3      30.03R
QUANTICO       CLOUDY    51  49  92 NE13      30.02R
FREDERICKSBRG* CLOUDY    53  53 100 NE8       29.98S
STAFFORD*      CLOUDY    51  49  93 NE9       30.03S FOG
WARRENTON      CLOUDY    52  48  85 NE8       29.99R FOG
CULPEPER*      CLOUDY    54  54  99 E3        29.99S
MANASSAS*      CLOUDY    50  48  93 E5        30.01R
LEESBURG*      RAIN      48  48 100 CALM      30.02S
WINCHESTER     RAIN      48  46  93 CALM      30.01R
FRONT ROYAL*   CLOUDY    48  46  93 N6        30.00R
LURAY*         CLOUDY    52  52 100 NE8       29.97S
$$

VAZ048-049-060>072-079>083-290200-
CENTRAL AND SOUTH CENTRAL VIRGINIA

CITY           SKY/WX    TMP DP  RH WIND       PRES   REMARKS
RICHMOND       DRIZZLE   55  54  96 NE9       29.96R FOG
CHESTERFIELD*  CLOUDY    57  45  62 E8        29.96R
PETERSBURG*    CLOUDY    60  60 100 NE10      29.95R FOG
HANOVER        TSTM      54  52  93 NE7       29.98S FOG
TAPPAHANNOCK*  CLOUDY    55  55 100 N5        30.00R
QUINTON*       CLOUDY    55  55 100 MISG      29.96R FOG
CHARLOTTSVILLE CLOUDY    55  52  89 NE8       29.96R
GORDONSVILLE*  CLOUDY    54  53  98 NE7       29.96S
ORANGE*        LGT RAIN  54  54 100 NE3       29.99R
LOUISA*        LGT RAIN  57  55  94 NE7       29.96R
BUMPASS*       CLOUDY    53  53  99 CALM      29.97R
FARMVILLE*     CLOUDY    58  58 100 NE3       29.92R THUNDER FOG
CREWE*         CLOUDY    59  59 100 NE3       29.91S
FORT PICKETT*  NOT AVBL
CHASE CITY*    CLOUDY    62  60  94 NE5       29.90R
CLARKSVILLE*   CLOUDY    64  64 100 NE3       29.89R
SOUTH HILL*    CLOUDY    62  62  97 NE3       29.96R
LAWRENCEVILLE* CLOUDY    61  60  96 E7        29.91R
EMPORIA*       CLOUDY    59  59 100 NE6       29.93R FOG
$$

VAZ088>098-290200-
SOUTHEAST VIRGINIA

CITY           SKY/WX    TMP DP  RH WIND       PRES   REMARKS
NORFOLK        CLOUDY    56  54  93 NE14      29.93R FOG
VIRGINIA BEACH FOG       57  53  86 NE12      29.93R VSB 1/4
NORFOLK NAVAL  FOG       57  55  93 NE9       29.95R VSB 1/2
WEST POINT*    CLOUDY    55  54  96 NE6       29.97R
SALUDA*        CLOUDY    55  54  99 NE6       29.96R
NEWPORT NEWS   CLOUDY    56  55  97 E10       29.94S FOG
LANGLEY AFB    CLOUDY    56  55  97 E10       29.93S
FORT EUSTIS    CLOUDY    56  56  99 NE9       29.93R
WILLIAMSBURG*  CLOUDY    57  55  94 CALM      29.95R
HR EXEC AP*    CLOUDY    57  54  88 NE7       29.95R
FRANKLIN*      CLOUDY    57  56  95 NE10      29.93R FOG
US460-WAKEFLD  CLOUDY    58  55  90 VRB6      29.93R FOG
$$

VAZ020-022-025-037-045-290200-
WEST CENTRAL AND SOUTHWEST VIRGINIA

CITY           SKY/WX    TMP DP  RH WIND       PRES   REMARKS
STAUNTON*      CLOUDY    55  55 100 N3        29.97S FOG
WAYNESBORO*    CLOUDY    55  53  96 MISG      29.96R
HOT SPRINGS VA RAIN      57  57 100 CALM      29.98R VSB<1/4
LYNCHBURG      CLOUDY    57  56  96 NE10      29.94R
DANVILLE       CLOUDY    65  62  90 VRB7      29.88S
SOUTH BOSTON*  CLOUDY    64  62  96 NE3       29.90R
MARTINSVILLE   FAIR      66  63  88 E7        29.92R
ROANOKE        CLOUDY    62  59  90 SE6       29.93R
BLACKSBURG     CLOUDY    64  62  91 SE12      29.94R
DUBLIN*        MOCLDY    71  56  58 CALM      29.92R
MARION*        MOCLDY    69  52  55 SW6       29.97R
HILLSVILLE*    FAIR      70  51  51 W6        29.93R
RICHLANDS*     FAIR      68  35  29 W7        29.96R
WISE*          MOCLDY    66  46  48 W5        29.98R
ABINGDON*      MOCLDY    72  55  54 W5        29.94R
$$

MDZ021>025-VAZ099-100-290200-
SOUTHERN MARYLAND AND THE DELMARVA PENINSULA

CITY           SKY/WX    TMP DP  RH WIND       PRES   REMARKS
PATUXENT RIVER DRIZZLE   49  47  93 NE12      30.00R
BAY BRIDGE APT NOT AVBL
LEONARDTOWN    CLOUDY    48  46  93 NE5       30.02R
DOVER          CLOUDY    48  48 100 N10       30.03R
GEORGETOWN     CLOUDY    49  48  97 NE14      30.02R FOG
EASTON         NOT AVBL
CAMBRIDGE      CLOUDY    46  46 100 NE7       30.00S
SALISBURY      CLOUDY    50  49  96 NE9       29.99R FOG
OCEAN CITY     CLOUDY    50  49  96 NE8       29.99R FOG
WALLOPS ISLAND CLOUDY    52  51  97 NE18      29.98R
ACCOMACK*      CLOUDY    52   3  14 E8        29.95S HAZE
$$

NCZ012>017-030>032-290200-
NORTH CENTRAL AND EASTERN NORTH CAROLINA

CITY           SKY/WX    TMP DP  RH WIND       PRES   REMARKS
ROANOKE RAPIDS FAIR      64  63  94 E5        29.88S
RALEIGH        TSTM      68  66  93 SE3       29.89R
ELIZABETH CITY FOG       60  60 100 NE9       29.90S VSB 1
AHOSKIE*       HVY RAIN  66  65  95 CALM      29.93R
EDENTON*       CLOUDY    68  66  96 E6        29.91R
CURRITUCK*     CLOUDY    59  59 100 NE7       29.92S FOG
KILL DEVIL HLS CLOUDY    61  59  94 N3        29.89R
MANTEO         NOT AVBL
CAPE HATTERAS  CLOUDY    70  67  90 SW10      29.90S
TARBORO*       HVY RAIN  69  67  92 NE9       29.88R
GOLDSBORO      MOCLDY    72  64  78 S7        29.84S
WASHINGTON     LGT RAIN  74  67  78 S6        29.87R
GREENVILLE     CLOUDY    73  70  88 E5        29.88S
NEW BERN       CLOUDY    73  62  68 S10       29.89S
WILMINGTON     CLEAR     72  65  78 S12       29.91S
$$

VAZ048-290200-
ELSEWHERE

CITY           SKY/WX    TMP DP  RH WIND       PRES   REMARKS
HARRISBURG PA  CLOUDY    45  42  89 SE8       30.04S
BALTIMORE      DRIZZLE   47  44  90 NE10      30.03R FOG
ANNAPOLIS      CLOUDY    48  45  89 MISG      30.02S
ANDREWS AFB    NOT AVBL
PHILADELPHIA   CLOUDY    45  41  86 NE6       30.06S
HENDERSON NC   CLOUDY   N/A N/A N/A NE3       29.89R FOG
GREENSBORO     PTCLDY    68  59  73 S3        29.87R
ROCKY MOUNT    TSTM      67  66  97 N8        29.88R
$$

VAZ100-290200-
MARINE

STATION/POSITION TIME  TEMP    WIND        PRES    WAVE   SWELL
                       AIR SEA DIR/SP/G            HT/PER HT/PER
                 (UTC) (F)     (DEG/KT/KT) (MB)    (FT/S) (FT/S)
BRANDYWINE LGT   0000   48                 1015.9R
CAPE MAY NJ      0000   48 58              1015.8R
LEWES DE         0000   50 55              1015.7R
15NM E FENWICK I 0050   50 52              1015.2R   4/ 5
OCEAN-CITY-INLET 0000   50 56              1014.4S
WACHAPREAGUE VA  0000   53 60              1013.7R
THOMAS POINT MD  0100   47 58   50/ 13/ 15 1017.7R
GOOSES REEF MD   0000   50 58   70/ 14/ 16 1016.5R   2/ 3
COVE POINT MD    0000   49                 1015.8R
SOLOMONS ISLAND  0000   50 61                N/A
BISHOPS HEAD MD  0000   51 59              1014.0S
POTOMAC MD       0000   53 59   50/ 14/ 16 1013.7R   1/ 3
CAMBRIDGE MD     0000   49 61              1014.9S
LEWISETTA VA     0000   53 61              1014.2R
RAPPAHANNOCK LGT 0000                      1014.3R
STINGRAY PT      0000   56 61   60/ 12/ 14 1014.2R   2/ 3
YORK RVR RNG VA  0000   55                 1013.3R
YORKTOWN VA      0000   56 62              1013.4R
JAMESTOWN VA     0000   57 67   70/  6/ 10   N/A     0
DOMINION TERM VA 0000   57                 1013.3R
KIPTOPEKE VA     0000      61                N/A
CHES BAY BRIDGE  0000   55 60              1013.0R
CAPE HENRY VA    0000   54                   N/A
CHESAPEAKE LGHT  0000   54      40/ 13/ 14 1013.9R
WILLOUBY STN VA  0000   56                 1014.3R
CAPE HENRY BUOY  0012      57                N/A     3/ 5
CAPE CHARLES BUO 0026      56                N/A     3/ 4   2/ 6
OFFSHORE WE BUOY 0021      56                N/A     3/ 5   2/ 6
64NM E OF VA BCH 0050   55 53   40/  6/  8 1012.4R   3/ 6   3/ 6
DUCK PIER NC     0000   58 67              1011.8R
44100 DUCK FRF   0024      60                N/A     3/ 5
44056 DUCK FRF   0041      58                N/A     2/11
OREGON INLET NC  0000   70 69              1011.4F
HATTERAS NC      0000   70 69              1011.9F
DIAMOND SHLS NC  0050   73 72  220/ 14/ 17 1012.6R   4/ 6   2/10
CAPE LOOKOUT NC  0100   69     200/ 11/ 13 1012.7F
$$




USA.gov is the U.S. government's official web portal to all federal, state and local government web resources and services.